Weather observations for the past three days for
Aitkin Municipal Airport - Steve Kurtz Field
Imperial (Metric)
Date Time (cdt) Wind (mph) Vis. (mi.) Weather Sky Cond. Temperature (ºF) Relative Humidity Wind Chill (°F) Heat Index (°F) Pressure Precipitation (in)
Air Dwpt 6 hour altimeter (in) sea level (mb) 1 hr 3 hr 6 hr
Max. Min.
19 22:55 Calm 10.00 Fair CLR 60.8 59 94% 30.07 0.0
19 22:35 Calm 10.00 Fair CLR 60.8 60.8 100% 30.07 0.0
19 22:15 Calm 10.00 Fair CLR 60.8 60.8 100% 30.07 0.0
19 21:55 Calm 10.00 Fair CLR 62.6 60.8 94% 30.07 0.0
19 21:35 Calm 10.00 Fair CLR 62.6 60.8 94% 30.06 0.0
19 21:15 Calm 10.00 Fair CLR 64.4 60.8 88% 30.06 0.0
19 20:55 Calm 10.00 Fair CLR 64.4 62.6 94% 30.06 0.0
19 20:35 Calm 10.00 Fair CLR 68 62.6 83% 30.05 0.0
19 20:15 S 3 10.00 Fair CLR 73.4 60.8 65% 30.05 0.0
19 19:55 S 3 10.00 Fair CLR 75.2 60.8 61% 77 30.05 0.0
19 19:35 S 5 10.00 Fair CLR 75.2 59 57% 78 30.05 0.0
19 19:15 S 8 10.00 Fair CLR 77 57.2 51% 79 30.05 0.0
19 18:55 S 7 10.00 Fair CLR 78.8 59 51% 80 30.05 0.0
19 18:35 S 7 10.00 Fair CLR 78.8 60.8 54% 80 30.05 0.0
19 18:15 S 8 10.00 Fair CLR 78.8 59 51% 80 30.05 0.0
19 17:55 SW 3 10.00 Fair CLR 77 59 54% 79 30.05 0.0
19 17:35 Calm 10.00 Fair CLR 77 57.2 51% 79 30.05 0.0
19 17:15 Calm 10.00 Partly Cloudy SCT060 80.6 55.4 42% 81 30.05 0.0
19 16:55 SW 5 10.00 Partly Cloudy SCT060 80.6 55.4 42% 81 30.05 0.0
19 16:35 NW 5 10.00 Partly Cloudy SCT060 80.6 55.4 42% 81 30.05 0.0
19 16:15 S 6 10.00 Mostly Cloudy BKN060 78.8 55.4 45% 79 30.05 0.0
19 15:55 W 5 10.00 Partly Cloudy SCT060 80.6 55.4 42% 81 30.06 0.0
19 15:35 S 6 10.00 Partly Cloudy SCT060 78.8 57.2 48% 80 30.06 0.0
19 15:15 W 5 10.00 Partly Cloudy SCT060 80.6 55.4 42% 81 30.06 0.0
19 14:55 SW 5 10.00 Partly Cloudy SCT060 80.6 57.2 45% 81 30.06 0.0
19 14:35 W 3 10.00 Partly Cloudy SCT050 80.6 55.4 42% 81 30.06 0.0
19 14:15 SW 5 10.00 Partly Cloudy SCT050 78.8 55.4 45% 79 30.07 0.0
19 13:55 S 10 G 16 10.00 Partly Cloudy SCT050 SCT060 78.8 57.2 48% 80 30.07 0.0
19 13:35 SW 8 10.00 Partly Cloudy SCT050 78.8 57.2 48% 80 30.08 0.0
19 13:15 SW 7 10.00 Partly Cloudy SCT049 SCT065 75.2 57.2 54% 78 30.08 0.0
19 12:55 SW 6 10.00 Mostly Cloudy SCT049 BKN055 BKN065 78.8 60.8 54% 80 30.09 0.0
19 12:35 SW 7 10.00 Partly Cloudy SCT047 75.2 59 57% 78 30.09 0.0
19 12:15 S 5 10.00 Fair CLR 77 59 54% 79 30.09 0.0
19 11:55 SW 6 10.00 Fair CLR 77 60.8 57% 79 30.09 0.0
19 11:35 W 3 10.00 Fair CLR 75.2 59 57% 78 30.09 0.0
19 11:15 SW 6 10.00 Fair CLR 75.2 59 57% 78 30.09 0.0
19 10:55 SW 6 10.00 Fair CLR 75.2 59 57% 78 30.1 0.0
19 10:35 S 7 10.00 Fair CLR 75.2 59 57% 78 30.1 0.0
19 10:15 S 3 10.00 Partly Cloudy SCT060 73.4 59 61% 30.1 0.0
19 09:55 S 3 10.00 Partly Cloudy SCT060 73.4 57.2 57% 30.1 0.0
19 09:35 S 3 10.00 Partly Cloudy SCT060 71.6 59 65% 30.11 0.0
19 09:15 SW 3 10.00 Fair CLR 71.6 57.2 61% 30.11 0.0
19 08:55 SW 3 10.00 Fair CLR 69.8 57.2 64% 30.12 0.0
19 08:35 S 3 10.00 Partly Cloudy SCT060 66.2 59 78% 30.12 0.0
19 08:15 Calm 10.00 Partly Cloudy SCT060 64.4 60.8 88% 30.12 0.0
19 07:55 Calm 10.00 Fair CLR 60.8 59 94% 30.12 0.0
19 07:35 Calm 10.00 Fair CLR 59 57.2 94% 30.12 0.0
19 07:15 Calm 10.00 Fair CLR 57.2 57.2 100% 30.12 0.0
19 06:55 Calm 10.00 Fair CLR 55.4 55.4 100% 30.12 0.0
19 06:35 Calm 10.00 Fair CLR 53.6 53.6 100% 30.12 0.0
19 06:15 Calm 7.00 Fair CLR 51.8 51.8 100% 30.12 0.0
19 05:55 Calm 10.00 Fair CLR 48.2 48.2 100% 30.12 0.0
19 05:35 Calm 10.00 Fair CLR 51.8 50 94% 30.11 0.0
19 05:15 Calm 10.00 Fair CLR 50 50 100% 30.11 0.0
19 04:55 Calm 10.00 Fair CLR 51.8 50 94% 30.11 0.0
19 04:35 Calm 7.00 Fair CLR 51.8 51.8 100% 30.11 0.0
19 04:15 Calm 5.00 Fog/Mist CLR 51.8 51.8 100% 30.11 0.0
19 03:55 Calm 7.00 Fair CLR 51.8 51.8 100% 30.11 0.0
19 03:35 Calm 5.00 Fog/Mist CLR 51.8 51.8 100% 30.11 0.0
19 03:15 Calm 5.00 Fog/Mist CLR 51.8 51.8 100% 30.12 0.0
19 02:55 Calm 1.75 Fog/Mist VV007 51.8 51.8 100% 30.12 0.0
19 02:35 Calm 1.50 Fog/Mist VV007 53.6 51.8 94% 30.12 0.0
19 02:15 Calm 5.00 Fog/Mist CLR 53.6 51.8 94% 30.12 0.0
19 01:55 Calm 7.00 Fair CLR 51.8 51.8 100% 30.12 0.0
19 01:35 Calm 10.00 Fair CLR 53.6 51.8 94% 30.12 0.0
19 01:15 Calm 10.00 Fair CLR 53.6 53.6 100% 30.12 0.0
19 00:55 Calm 10.00 Fair CLR 53.6 53.6 100% 30.13 0.0
19 00:35 Calm 10.00 Fair CLR 55.4 53.6 94% 30.12 0.0
19 00:15 Calm 10.00 Fair CLR 55.4 53.6 94% 30.13 0.0
18 23:55 Calm 10.00 Fair CLR 55.4 53.6 94% 30.13 0.0
18 23:35 Calm 10.00 Fair CLR 55.4 55.4 100% 30.12 0.0
18 23:15 Calm 10.00 Fair CLR 55.4 55.4 100% 30.12 0.0
18 22:55 Calm 10.00 Fair CLR 57.2 55.4 94% 30.12 0.0
18 22:35 Calm 10.00 Fair CLR 57.2 55.4 94% 30.13 0.0
18 22:15 Calm 10.00 Fair CLR 57.2 55.4 94% 30.13 0.0
18 21:55 Calm 10.00 Fair CLR 59 57.2 94% 30.13 0.0
18 21:35 Calm 10.00 Fair CLR 59 57.2 94% 30.13 0.0
18 21:15 Calm 10.00 Fair CLR 60.8 57.2 88% 30.13 0.0
18 20:55 Calm 10.00 Fair CLR 60.8 57.2 88% 30.13 0.0
18 20:35 Calm 10.00 Fair CLR 64.4 57.2 78% 30.13 0.0
18 20:15 S 5 10.00 Fair CLR 69.8 57.2 64% 30.13 0.0
18 19:55 Calm 10.00 Partly Cloudy SCT060 71.6 55.4 57% 30.13 0.0
18 19:35 Calm 10.00 Partly Cloudy SCT060 73.4 55.4 53% 30.13 0.0
18 19:15 SW 5 10.00 Partly Cloudy SCT060 73.4 53.6 50% 30.14 0.0
18 18:55 S 3 10.00 Partly Cloudy SCT060 75.2 53.6 47% 78 30.14 0.0
18 18:35 SW 6 10.00 Mostly Cloudy BKN060 75.2 53.6 47% 78 30.15 0.0
18 18:15 SW 3 10.00 Fair CLR 73.4 55.4 53% 30.15 0.0
18 17:55 W 3 10.00 Partly Cloudy SCT050 73.4 53.6 50% 30.16 0.0
18 17:35 SW 3 10.00 Partly Cloudy SCT050 75.2 53.6 47% 78 30.16 0.0
18 17:15 SW 6 10.00 Partly Cloudy SCT050 75.2 55.4 50% 78 30.16 0.0
18 16:55 W 3 10.00 Mostly Cloudy BKN050 75.2 53.6 47% 78 30.16 0.0
18 16:35 SW 3 10.00 Partly Cloudy SCT050 75.2 53.6 47% 78 30.17 0.0
18 16:15 SW 6 10.00 Partly Cloudy SCT050 75.2 53.6 47% 78 30.17 0.0
18 15:55 W 5 10.00 Mostly Cloudy BKN050 75.2 53.6 47% 78 30.17 0.0
18 15:35 W 6 10.00 Partly Cloudy SCT050 75.2 55.4 50% 78 30.18 0.0
18 15:15 W 3 10.00 Partly Cloudy SCT050 75.2 55.4 50% 78 30.18 0.0
18 14:55 W 3 10.00 Mostly Cloudy BKN050 BKN055 75.2 53.6 47% 78 30.19 0.0
18 14:35 W 5 10.00 Partly Cloudy SCT050 73.4 53.6 50% 30.19 0.0
18 14:15 W 3 10.00 Partly Cloudy SCT050 73.4 53.6 50% 30.2 0.0
18 13:55 NW 3 10.00 Partly Cloudy SCT050 73.4 53.6 50% 30.2 0.0
18 13:35 SW 5 10.00 Partly Cloudy SCT050 73.4 53.6 50% 30.2 0.0
18 13:15 SW 8 10.00 Partly Cloudy SCT050 73.4 51.8 47% 30.21 0.0
18 12:55 SW 3 10.00 Partly Cloudy SCT050 73.4 51.8 47% 30.21 0.0
18 12:35 W 5 10.00 Partly Cloudy SCT050 73.4 51.8 47% 30.21 0.0
18 12:15 Calm 10.00 Partly Cloudy SCT048 71.6 51.8 50% 30.21 0.0
18 11:55 SW 6 10.00 Mostly Cloudy BKN048 69.8 53.6 57% 30.21 0.0
18 11:35 Calm 10.00 Partly Cloudy SCT048 71.6 51.8 50% 30.22 0.0
18 11:15 NW 5 10.00 Partly Cloudy SCT046 71.6 51.8 50% 30.22 0.0
18 10:55 Calm 10.00 Partly Cloudy SCT046 71.6 51.8 50% 30.22 0.0
18 10:35 W 5 10.00 Fair CLR 71.6 51.8 50% 30.22 0.0
18 10:15 Calm 10.00 Fair CLR 69.8 51.8 53% 30.23 0.0
18 09:55 Calm 10.00 Fair CLR 69.8 51.8 53% 30.23 0.0
18 09:35 Calm 10.00 Fair CLR 68 53.6 60% 30.23 0.0
18 09:15 Calm 10.00 Fair CLR 66.2 55.4 68% 30.23 0.0
18 08:55 Calm 10.00 Fair CLR 64.4 57.2 78% 30.24 0.0
18 08:35 Calm 10.00 Fair CLR 62.6 57.2 83% 30.24 0.0
18 08:15 Calm 10.00 Fair CLR 60.8 57.2 88% 30.24 0.0
18 07:55 Calm 10.00 Fair CLR 57.2 55.4 94% 30.24 0.0
18 07:35 Calm 10.00 Fair CLR 55.4 53.6 94% 30.24 0.0
18 07:15 Calm 10.00 Fair CLR 53.6 51.8 94% 30.24 0.0
18 06:55 Calm 10.00 Fair CLR 51.8 51.8 100% 30.24 0.0
18 06:35 Calm 4.00 Fog/Mist SCT001 48.2 48.2 100% 30.24 0.0
18 06:15 Calm 0.15 Fog OVC001 46.4 46.4 100% 30.24 0.0
18 05:55 Calm 5.00 Fog/Mist SCT001 44.6 44.6 100% 30.23 0.0
18 05:35 Calm 1.25 Fog/Mist BKN001 44.6 44.6 100% 30.23 0.0
18 05:15 Calm 0.75 Fog/Mist BKN001 44.6 44.6 100% 30.23 0.0
18 04:56 Calm 0.75 Fog/Mist BKN001 46.4 46.4 100% 30.23 0.0
18 04:35 Calm 1.00 Fog/Mist VV007 46.4 46.4 100% 30.23 0.0
18 03:58 Calm 0.75 Fog/Mist BKN001 44.6 44.6 100% 30.22 0.0
17 22:15 Calm 10.00 Mostly Cloudy BKN070 55.4 53.6 94% 30.19 0.0
17 21:55 Calm 10.00 Partly Cloudy SCT070 53.6 51.8 94% 30.18 0.0
17 21:35 Calm 10.00 Fair CLR 53.6 51.8 94% 30.18 0.0
17 21:15 Calm 10.00 Fair CLR 53.6 51.8 94% 30.18 0.0
17 20:55 Calm 10.00 Fair CLR 55.4 53.6 94% 30.18 0.0
17 20:35 Calm 10.00 Fair CLR 59 53.6 82% 30.17 0.0
17 20:15 Calm 10.00 Fair CLR 64.4 53.6 68% 30.17 0.0
17 19:55 Calm 10.00 Fair CLR 66.2 51.8 60% 30.17 0.0
17 19:35 N 3 10.00 Fair CLR 68 50 53% 30.17 0.0
17 19:15 N 7 10.00 Fair CLR 69.8 50 50% 30.17 0.0
17 18:55 N 6 10.00 Fair CLR 69.8 50 50% 30.17 0.0
17 18:35 N 3 10.00 Partly Cloudy SCT050 66.2 51.8 60% 30.17 0.0
17 18:15 NW 5 10.00 Fair CLR 69.8 50 50% 30.17 0.0
17 17:55 N 7 10.00 Partly Cloudy SCT050 69.8 50 50% 30.17 0.0
17 17:35 N 6 10.00 Partly Cloudy SCT050 71.6 50 47% 30.17 0.0
17 17:15 NW 7 10.00 Partly Cloudy SCT070 69.8 50 50% 30.17 0.0
17 16:55 N 6 10.00 Partly Cloudy SCT060 69.8 50 50% 30.18 0.0
17 16:35 N 8 10.00 Partly Cloudy SCT060 68 51.8 56% 30.18 0.0
17 16:15 N 8 10.00 Partly Cloudy SCT060 69.8 50 50% 30.18 0.0
17 15:55 N 7 10.00 Partly Cloudy SCT060 69.8 51.8 53% 30.18 0.0
17 15:35 N 10 10.00 Partly Cloudy SCT050 SCT060 69.8 50 50% 30.18 0.0
17 15:15 N 8 10.00 Partly Cloudy SCT050 SCT060 71.6 48.2 44% 30.18 0.0
17 14:55 N 8 10.00 Mostly Cloudy SCT048 BKN060 69.8 51.8 53% 30.18 0.0
17 14:35 NW 7 10.00 Partly Cloudy SCT048 SCT060 71.6 51.8 50% 30.18 0.0
17 14:15 N 10 10.00 Mostly Cloudy SCT050 BKN060 68 50 53% 30.18 0.0
17 13:55 N 7 10.00 Partly Cloudy SCT060 68 51.8 56% 30.18 0.0
17 13:35 N 8 10.00 Partly Cloudy SCT060 69.8 51.8 53% 30.18 0.0
17 13:15 NW 8 10.00 Mostly Cloudy SCT042 BKN060 68 51.8 56% 30.18 0.0
17 12:55 N 6 10.00 Mostly Cloudy SCT042 BKN050 66.2 51.8 60% 30.18 0.0
17 12:35 NW 6 10.00 Mostly Cloudy SCT042 BKN050 66.2 51.8 60% 30.18 0.0
17 12:15 N 6 10.00 Mostly Cloudy SCT040 BKN050 64.4 50 60% 30.18 0.0
17 11:55 N 7 10.00 Mostly Cloudy BKN048 68 50 53% 30.18 0.0
17 11:35 NW 5 10.00 Mostly Cloudy SCT037 BKN046 66.2 50 56% 30.19 0.0
17 11:15 NW 3 10.00 Mostly Cloudy BKN037 BKN044 64.4 50 60% 30.18 0.0
17 10:55 N 10 10.00 Partly Cloudy SCT035 SCT043 66.2 50 56% 30.18 0.0
17 10:35 N 10 10.00 Fair CLR 64.4 50 60% 30.18 0.0
17 10:15 N 10 10.00 Partly Cloudy SCT034 64.4 51.8 64% 30.17 0.0
17 09:55 NW 6 10.00 Fair CLR 62.6 50 64% 30.17 0.0
17 09:35 N 7 10.00 Fair CLR 62.6 51.8 68% 30.17 0.0
17 09:15 N 8 10.00 Fair CLR 60.8 50 68% 30.17 0.0
17 08:55 N 8 10.00 Fair CLR 60.8 51.8 72% 30.16 0.0
17 08:35 N 7 10.00 Fair CLR 59 51.8 77% 30.15 0.0
17 08:15 N 9 10.00 Fair CLR 57.2 51.8 82% 30.15 0.0
17 07:55 N 7 10.00 Fair CLR 57.2 51.8 82% 30.14 0.0
17 07:35 N 7 10.00 Fair CLR 55.4 51.8 88% 30.14 0.0
17 07:15 N 8 10.00 Fair CLR 55.4 51.8 88% 30.13 0.0
17 06:55 N 7 10.00 Fair CLR 53.6 51.8 94% 30.13 0.0
17 06:35 N 3 10.00 Fair CLR 51.8 50 94% 30.12 0.0
17 06:15 Calm 10.00 Fair CLR 48.2 48.2 100% 30.11 0.0
17 05:55 Calm 10.00 Fair CLR 48.2 46.4 94% 30.1 0.0
17 05:35 Calm 10.00 Fair CLR 48.2 48.2 100% 30.1 0.0
17 05:15 Calm 10.00 Fair CLR 48.2 48.2 100% 30.09 0.0
17 04:55 Calm 10.00 Fair CLR 48.2 48.2 100% 30.08 0.0
17 04:35 Calm 10.00 Fair CLR 51.8 48.2 88% 30.08 0.0
17 04:15 Calm 10.00 Fair CLR 51.8 48.2 88% 30.06 0.0
17 03:55 N 3 10.00 Fair CLR 51.8 48.2 88% 30.05 0.0
17 03:35 N 3 10.00 Fair CLR 50 48.2 94% 30.05 0.0
17 03:15 Calm 10.00 Fair CLR 51.8 50 94% 30.05 0.0
17 02:55 N 3 10.00 Fair CLR 51.8 50 94% 30.04 0.0
17 02:35 Calm 10.00 Fair CLR 53.6 50 88% 30.04 0.0
17 02:15 Calm 10.00 Fair CLR 53.6 51.8 94% 30.04 0.0
17 01:55 NW 3 10.00 Fair CLR 53.6 51.8 94% 30.03 0.0
17 01:35 Calm 10.00 Fair CLR 55.4 51.8 88% 30.03 0.0
17 01:15 NW 3 10.00 Fair CLR 55.4 51.8 88% 30.02 0.0
17 00:55 Calm 10.00 Partly Cloudy SCT080 53.6 51.8 94% 30.02 0.0
17 00:35 Calm 10.00 Mostly Cloudy BKN080 53.6 51.8 94% 30.02 0.0
17 00:15 Calm 10.00 Fair CLR 53.6 51.8 94% 30.01 0.0
16 23:55 Calm 10.00 Partly Cloudy SCT080 53.6 51.8 94% 30.01 0.0
16 23:35 Calm 10.00 Partly Cloudy SCT080 55.4 51.8 88% 30 0.0
16 23:15 Calm 10.00 Partly Cloudy SCT080 53.6 53.6 100% 29.99 0.0
Date Time (cdt) Wind (mph) Vis. (mi.) Weather Sky Cond. Air Dwpt Max. Min. Relative Humidity Wind Chill (°F) Heat Index (°F) altimeter (in) sea level (mb) 1 hr 3 hr 6 hr
6 hour
Temperature (ºF) Pressure Precipitation (in)